Connellys Springs, NC

5:13 AM EDT on August 25, 2016 (GMT -0400)
Morganton-Lenoir

Weather History for KMRN - March, 2014

Change the Weather History Date:

Tuesday, March 11, 2014

  Actual Average (KHKY) Record (KHKY)
Temperature  
Mean Temperature 56 °F -  
Max Temperature 80 °F 60 °F 82 °F (1990)
Min Temperature 33 °F 37 °F 21 °F (1998)
Degree Days  
Heating Degree Days 8    
Growing Degree Days 6 (Base 50)    
Moisture  
Dew Point 32 °F    
Average Humidity 49    
Maximum Humidity 94    
Minimum Humidity 11    
Precipitation  
Precipitation 0.00 in - - ()
Sea Level Pressure  
Sea Level Pressure 29.80 in    
Wind  
Wind Speed 2 mph (SSW)    
Max Wind Speed 10 mph    
Max Gust Speed -    
Visibility 10 miles    
Events      
Averages and records for this station are not official NWS values.
T = Trace of Precipitation, MM = Missing Value Source: NWS Daily Summary

Daily Weather History Graph

Daily Weather History Graph

Search for Another Location

Airport or City:

Trip Planner

Search our weather history database for the weather conditions in past years. The results will help you decide how hot, cold, wet, or windy it might be!

Date:

Astronomy

Mar. 11, 2014 Rise Set
Actual Time 7:42 AM EDT 7:30 PM EDT
Civil Twilight 7:17 AM EDT 7:56 PM EDT
Nautical Twilight 6:47 AM EDT 8:25 PM EDT
Astronomical Twilight 6:18 AM EDT 8:55 PM EDT
Moon 3:12 PM EDT (3/11) 4:28 AM EDT (3/11)
Length of Visible Light 12h 38m
Length of Day
11h 47m
Waxing Gibbous, 78% of the Moon is Illuminated
Mar 11
Waxing Gibbous
Mar 16
Full
Mar 23
Last Quarter
Mar 30
New
Apr 7
First Quarter

Hourly Weather History & Observations

Time (EDT) Temp. Windchill Dew Point Humidity Pressure Visibility Wind Dir Wind Speed Gust Speed Precip Events Conditions
12:15 AM 42.4 °F - 31.6 °F 66% 29.88 in 10.0 mi Calm Calm - N/A   Clear
12:35 AM 42.6 °F 39.9 °F 32.0 °F 66% 29.88 in 10.0 mi WSW 4.6 mph - N/A   Clear
12:55 AM 45.3 °F 43.0 °F 32.4 °F 61% 29.88 in 10.0 mi West 4.6 mph - N/A   Clear
1:15 AM 41.5 °F - 31.8 °F 68% 29.88 in 10.0 mi Calm Calm - N/A   Clear
1:35 AM 41.9 °F 40.0 °F 32.0 °F 68% 29.88 in 10.0 mi WSW 3.5 mph - N/A   Clear
1:55 AM 39.4 °F - 31.8 °F 74% 29.88 in 10.0 mi Calm Calm - N/A   Clear
2:15 AM 39.7 °F 37.6 °F 32.2 °F 74% 29.87 in 10.0 mi SE 3.5 mph - N/A   Clear
2:35 AM 40.5 °F 37.3 °F 32.0 °F 72% 29.87 in 10.0 mi SSE 4.6 mph - N/A   Clear
2:55 AM 39.2 °F - 32.0 °F 75% 29.87 in 10.0 mi Calm Calm - N/A   Clear
3:15 AM 39.0 °F - 32.5 °F 78% 29.87 in 10.0 mi Calm Calm - N/A   Clear
3:35 AM 38.3 °F 35.9 °F 33.3 °F 82% 29.87 in 10.0 mi North 3.5 mph - N/A   Clear
3:55 AM 38.5 °F 35.0 °F 32.2 °F 78% 29.87 in 10.0 mi North 4.6 mph - N/A   Clear
4:15 AM 39.2 °F - 32.9 °F 78% 29.86 in 10.0 mi Calm Calm - N/A   Clear
4:35 AM 42.3 °F - 34.2 °F 73% 29.85 in 10.0 mi Calm Calm - N/A   Clear
4:55 AM 38.5 °F - 32.9 °F 80% 29.84 in 10.0 mi Calm Calm - N/A   Clear
5:15 AM 39.4 °F - 32.9 °F 78% 29.85 in 10.0 mi Calm Calm - N/A   Clear
5:35 AM 36.5 °F - 32.2 °F 84% 29.84 in 10.0 mi Calm Calm - N/A   Clear
5:55 AM 34.2 °F - 31.8 °F 91% 29.85 in 10.0 mi Calm Calm - N/A   Clear
6:15 AM 33.1 °F - 30.7 °F 91% 29.85 in 10.0 mi Calm Calm - N/A   Clear
6:35 AM 34.0 °F - 32.2 °F 93% 29.84 in 10.0 mi Calm Calm - N/A   Clear
6:55 AM 34.5 °F - 32.5 °F 92% 29.85 in 10.0 mi Calm Calm - N/A   Clear
7:15 AM 33.4 °F - 32.0 °F 94% 29.85 in 10.0 mi Calm Calm - N/A   Clear
7:35 AM 34.2 °F - 31.8 °F 91% 29.85 in 10.0 mi Calm Calm - N/A   Clear
7:55 AM 36.0 °F - 32.4 °F 87% 29.85 in 10.0 mi Calm Calm - N/A   Clear
8:15 AM 34.3 °F - 31.6 °F 90% 29.85 in 10.0 mi Calm Calm - N/A   Clear
8:35 AM 38.7 °F - 35.6 °F 89% 29.85 in 10.0 mi Calm Calm - N/A   Clear
8:55 AM 45.5 °F - 38.3 °F 76% 29.85 in 10.0 mi Calm Calm - N/A   Clear
9:15 AM 50.9 °F - 39.6 °F 65% 29.85 in 10.0 mi Calm Calm - N/A   Clear
9:35 AM 55.6 °F - 35.8 °F 47% 29.85 in 10.0 mi Calm Calm - N/A   Clear
9:55 AM 57.9 °F - 34.9 °F 42% 29.85 in 10.0 mi Calm Calm - N/A   Clear
10:15 AM 60.4 °F - 33.3 °F 36% 29.86 in 10.0 mi South 4.6 mph - N/A   Clear
10:35 AM 62.6 °F - 32.5 °F 32% 29.86 in 10.0 mi Calm Calm - N/A   Clear
10:55 AM 65.3 °F - 31.1 °F 28% 29.85 in 10.0 mi SSE 3.5 mph - N/A   Clear
11:15 AM 66.6 °F - 29.7 °F 25% 29.85 in 10.0 mi SE 4.6 mph - N/A   Clear
11:35 AM 67.6 °F - 29.3 °F 24% 29.85 in 10.0 mi Calm Calm - N/A   Clear
11:55 AM 69.6 °F - 30.6 °F 23% 29.85 in 10.0 mi Calm Calm - N/A   Clear
12:15 PM 70.0 °F - 29.5 °F 22% 29.83 in 10.0 mi NW 5.8 mph - N/A   Clear
12:35 PM 71.6 °F - 27.5 °F 19% 29.83 in 10.0 mi SW 3.5 mph - N/A   Clear
12:55 PM 72.5 °F - 27.7 °F 19% 29.82 in 10.0 mi West 5.8 mph - N/A   Clear
1:15 PM 72.7 °F - 26.6 °F 18% 29.81 in 10.0 mi SE 3.5 mph - N/A   Clear
1:35 PM 73.8 °F - 28.8 °F 19% 29.79 in 10.0 mi SW 4.6 mph - N/A   Clear
1:55 PM 74.5 °F - 28.0 °F 18% 29.79 in 10.0 mi SW 10.4 mph - N/A   Clear
2:15 PM 74.7 °F - 24.4 °F 15% 29.77 in 10.0 mi SE 4.6 mph - N/A   Clear
2:35 PM 76.3 °F - 23.2 °F 14% 29.76 in 10.0 mi SSE 8.1 mph - N/A   Clear
2:55 PM 76.8 °F - 23.5 °F 14% 29.75 in 10.0 mi Calm Calm - N/A   Clear
3:15 PM 77.7 °F - 24.4 °F 14% 29.74 in 10.0 mi South 8.1 mph - N/A   Clear
3:35 PM 78.1 °F - 23.0 °F 13% 29.74 in 10.0 mi SSW 8.1 mph - N/A   Clear
3:55 PM 78.1 °F - 22.1 °F 12% 29.73 in 10.0 mi South 9.2 mph - N/A   Clear
4:15 PM 79.5 °F - 23.4 °F 13% 29.74 in 10.0 mi SSW 10.4 mph - N/A   Clear
4:35 PM 79.7 °F - 22.6 °F 12% 29.73 in 10.0 mi SSW 8.1 mph - N/A   Clear
4:55 PM 80.1 °F - 22.5 °F 12% 29.73 in 10.0 mi SSW 6.9 mph - N/A   Clear
5:15 PM 80.4 °F - 21.9 °F 11% 29.72 in 10.0 mi SSE 4.6 mph - N/A   Clear
5:35 PM 80.1 °F - 25.3 °F 13% 29.72 in 10.0 mi SSE 5.8 mph - N/A   Clear
5:55 PM 79.5 °F - 28.2 °F 15% 29.71 in 10.0 mi SSW 6.9 mph - N/A   Clear
6:15 PM 77.2 °F - 28.6 °F 17% 29.71 in 10.0 mi South 5.8 mph - N/A   Clear
6:35 PM 75.7 °F - 29.3 °F 18% 29.72 in 10.0 mi South 5.8 mph - N/A   Clear
6:55 PM 74.3 °F - 30.4 °F 20% 29.73 in 10.0 mi South 3.5 mph - N/A   Clear
7:15 PM 72.3 °F - 32.0 °F 23% 29.73 in 10.0 mi South 4.6 mph - N/A   Clear
7:35 PM 70.7 °F - 32.7 °F 25% 29.74 in 10.0 mi SSW 6.9 mph - N/A   Clear
7:55 PM 69.1 °F - 34.0 °F 27% 29.74 in 10.0 mi SSW 6.9 mph - N/A   Clear
8:15 PM 68.2 °F - 34.5 °F 29% 29.74 in 10.0 mi South 4.6 mph - N/A   Clear
8:35 PM 66.4 °F - 35.4 °F 32% 29.74 in 10.0 mi South 3.5 mph - N/A   Clear
8:55 PM 55.9 °F - 38.1 °F 51% 29.75 in 10.0 mi Calm Calm - N/A   Clear
9:15 PM 55.0 °F - 38.5 °F 54% 29.75 in 10.0 mi Calm Calm - N/A   Clear
9:35 PM 54.9 °F - 39.6 °F 56% 29.75 in 10.0 mi Calm Calm - N/A   Clear
9:55 PM 53.8 °F - 39.6 °F 59% 29.75 in 10.0 mi Calm Calm - N/A   Clear
10:15 PM 52.7 °F - 39.2 °F 60% 29.75 in 10.0 mi Calm Calm - N/A   Clear
10:35 PM 53.1 °F - 40.1 °F 61% 29.75 in 10.0 mi Calm Calm - N/A   Clear
10:55 PM 51.6 °F - 39.7 °F 64% 29.75 in 10.0 mi Calm Calm - N/A   Clear
11:15 PM 51.3 °F - 39.9 °F 65% 29.75 in 10.0 mi Calm Calm - N/A   Clear
11:35 PM 51.6 °F - 40.5 °F 66% 29.74 in 10.0 mi Calm Calm - N/A   Clear
11:55 PM 52.3 °F - 41.4 °F 66% 29.74 in 10.0 mi Calm Calm - N/A   Clear